Location: Kalispell
(48.1967°N, 114.3128°W)
Time: 11:54:32
(UTC-06:00)

Amateur Radio Satellites - All Passes

Search period start: 27 May 2015 11:24
Search period end: 28 May 2015 11:24
Location: Kalispell, 48.1967°N, 114.3128°W

Satellite Date Start Highest point End Downlink Frequencies (MHz)
Time Altitude Azimuth
QB50P2 27 May 11:28:49 11:33:02 58° 72° (ENE) 11:37:17 145.880/145.840
CANX-2 27 May 11:30:30 11:33:58 25° 294° (WNW) 11:37:21 2200.000
ZACube-1 27 May 11:31:04 11:35:23 56° 100° (E) 11:39:34 437.345
CUBEBUG 2 27 May 11:31:10 11:35:42 86° 103° (ESE) 11:40:03 437.445
UKube-1 27 May 11:32:22 11:36:02 26° 94° (E) 11:39:44 .
CUTE 1.7 + AOD 2 27 May 11:33:58 11:37:27 25° 294° (WNW) 11:40:52 437.475
ANTELSAT 27 May 11:35:12 11:39:52 63° 259° (W) 11:44:29 437.575/2403.000
POPSAT HIP 1 27 May 11:40:54 11:45:11 75° 74° (ENE) 11:49:30 437.405
DX 1 27 May 11:41:30 11:45:32 34° 97° (E) 11:49:34 434.975-435.025
DUCHIFAT 1 27 May 11:42:29 11:46:45 76° 75° (ENE) 11:51:04 145.980
Oscar 11 27 May 11:42:39 11:46:56 67° 287° (WNW) 11:51:12 145.826/435.025
BRITE-PL 27 May 11:46:44 11:50:08 16° 304° (NW) 11:53:16 437.365/2234.400
GOMX 1 27 May 11:46:47 11:50:40 20° 301° (WNW) 11:54:20 467.674
HO-68 27 May 11:51:19 11:57:57 41° 299° (WNW) 12:04:29 435.675
CUBEBUG 1 27 May 11:55:21 11:57:45 15° 87° (E) 12:00:20 437.445
SEEDS 27 May 11:56:19 11:59:17 19° 297° (WNW) 12:02:10 437.485
VELOX 1 27 May 11:57:24 12:01:12 27° 94° (E) 12:05:04 145.980
GONETS M04 27 May 11:57:25 11:58:46 11° 69° (ENE) 12:00:48
ESTCUBE 1 27 May 12:02:15 12:05:31 20° 90° (E) 12:08:52 437.505/2401.250
BUGSAT 1 27 May 12:03:42 12:07:52 88° 72° (ENE) 12:12:08 437.445
CUSAT 1 27 May 12:04:37 12:08:20 15° 75° (ENE) 12:12:39 437.405
TIGRISAT 27 May 12:08:28 12:12:41 32° 265° (W) 12:16:51 435.000
PCSat 27 May 12:08:56 12:12:56 21° 252° (WSW) 12:16:47 145.827
COMPASS 1 27 May 12:09:02 12:11:47 17° 298° (WNW) 12:14:26 437.405
Cosmos 2504 27 May 12:10:18 12:18:17 51° 287° (WNW) 12:25:43 435.465 / 435.565
50 SAT 27 May 12:12:30 12:16:11 40° 97° (E) 12:19:51 437.505
UWE-3 27 May 12:17:52 12:22:04 41° 291° (WNW) 12:26:06 435.000/436.395/437.385
CINEMA 3 27 May 12:20:02 12:23:41 22° 298° (WNW) 12:27:08 145.822/145.860
AAUSAT CUBESAT 2 27 May 12:21:02 12:23:29 15° 299° (WNW) 12:25:49 437.432
QB50P1 27 May 12:25:18 12:29:21 39° 263° (W) 12:33:24 145.935-145.965
FUNcube-1 27 May 12:26:43 12:30:51 42° 290° (WNW) 12:34:51 145.935
POLYITAN 1 27 May 12:27:36 12:31:37 37° 263° (W) 12:35:39 437.675
AISAT 27 May 12:28:50 12:33:17 56° 101° (E) 12:37:42 437.250
UNISAT 6 27 May 12:30:01 12:33:35 21° 269° (W) 12:37:01 437.425
SPROUT 27 May 12:34:09 12:34:35 10° 84° (E) 12:35:16 437.525
DELFI C3 27 May 12:44:38 12:47:43 21° 295° (WNW) 12:50:42 145.870
SO-50 27 May 12:45:20 12:50:18 69° 235° (SW) 12:55:11 436.795
TISAT 1 27 May 12:54:33 12:56:14 12° 86° (E) 12:58:07 437.305
NANOSAT C BR1 27 May 12:57:35 13:00:49 20° 269° (W) 13:03:58 145.865
HUMSAT D 27 May 12:57:43 13:01:39 39° 291° (WNW) 13:05:30 437.325/437.525
QB50P2 27 May 13:06:33 13:09:20 16° 271° (W) 13:12:00 145.880/145.840
RS-15 27 May 13:07:47 13:18:07 41° 337° (NNW) 13:28:46 29.354- 29.394
UKube-1 27 May 13:08:15 13:12:16 36° 292° (WNW) 13:16:14 .
ZACube-1 27 May 13:08:18 13:11:21 18° 298° (WNW) 13:14:15 437.345
CUBEBUG 2 27 May 13:09:28 13:11:46 14° 302° (WNW) 13:13:51 437.445
DANDE 27 May 13:15:13 13:21:45 35° 86° (E) 13:29:15 436.750
DX 1 27 May 13:17:54 13:21:43 29° 295° (WNW) 13:25:27 434.975-435.025
POPSAT HIP 1 27 May 13:19:38 13:21:40 13° 274° (W) 13:23:30 437.405
DUCHIFAT 1 27 May 13:21:14 13:23:11 12° 274° (W) 13:24:56 145.980
AO-7 27 May 13:25:25 13:28:09 12° 31° (NNE) 13:31:12 29.400- 29.500
CUBEBUG 1 27 May 13:30:13 13:34:40 69° 287° (WNW) 13:39:05 437.445
VELOX 1 27 May 13:33:43 13:37:52 37° 292° (WNW) 13:41:58 145.980
Oscar 19 27 May 13:37:24 13:42:24 50° 69° (ENE) 13:47:27 437.125/150
ESTCUBE 1 27 May 13:38:18 13:42:43 52° 289° (WNW) 13:47:07 437.505/2401.250
HO-68 27 May 13:41:57 13:43:56 11° 321° (NW) 13:45:36 435.675
CUSAT 1 27 May 13:42:05 13:49:32 62° 95° (E) 13:57:46 437.405
BUGSAT 1 27 May 13:43:30 13:44:05 10° 275° (W) 13:44:25 437.445
GONETS M04 27 May 13:45:15 13:53:40 53° 90° (E) 14:02:11
50 SAT 27 May 13:47:47 13:50:41 20° 296° (WNW) 13:53:30 437.505
ITAMSAT 1 27 May 13:53:41 13:57:47 25° 61° (ENE) 14:02:00 435.822/435.867
ITUPSAT 1 27 May 14:00:52 14:01:59 11° 84° (E) 14:03:23 437.325
AISAT 27 May 14:06:13 14:09:30 20° 298° (WNW) 14:12:41 437.250
SPROUT 27 May 14:07:03 14:11:26 89° 114° (ESE) 14:15:47 437.525
BEESAT 27 May 14:07:22 14:09:29 13° 86° (E) 14:11:51 436.000
Cosmos 2504 27 May 14:11:11 14:13:58 12° 313° (NW) 14:16:15 435.465 / 435.565
SWISSCUBE 27 May 14:15:14 14:18:17 17° 89° (E) 14:21:29 437.505
TISAT 1 27 May 14:28:19 14:32:38 76° 284° (WNW) 14:36:53 437.305
SO-50 27 May 14:28:41 14:30:03 11° 252° (WSW) 14:31:08 436.795
Gurwin Techsat 1B 27 May 14:33:29 14:38:32 47° 68° (ENE) 14:43:39 435.225
Cosmos 2499 27 May 14:46:46 14:52:41 24° 83° (E) 14:58:32 435.465 / 435.565
DANDE 27 May 14:57:05 15:04:33 64° 288° (WNW) 15:13:05 436.750
CUBEBUG 1 27 May 15:09:39 15:10:16 10° 304° (NW) 15:10:39 437.445
AO-7 27 May 15:11:22 15:18:40 37° 55° (NE) 15:26:08 29.400- 29.500
JAS-2 27 May 15:15:22 15:20:36 29° 63° (ENE) 15:25:29 435.910
Oscar 19 27 May 15:17:43 15:22:03 25° 268° (W) 15:26:18 437.125/150
RS-15 27 May 15:24:02 15:34:08 36° 11° (N) 15:44:41 29.354- 29.394
CUSAT 1 27 May 15:25:33 15:32:46 38° 297° (WNW) 15:40:21 437.405
ITAMSAT 1 27 May 15:31:56 15:37:00 55° 260° (W) 15:42:07 435.822/435.867
HORYU 2 27 May 15:32:20 15:36:12 30° 66° (ENE) 15:40:08 437.375
ITUPSAT 1 27 May 15:35:56 15:40:45 83° 105° (ESE) 15:45:34 437.325
KKS-1 27 May 15:38:01 15:41:10 19° 90° (E) 15:44:26 437.445
GONETS M04 27 May 15:42:30 15:50:50 42° 293° (WNW) 15:59:05
BEESAT 27 May 15:43:16 15:48:04 84° 283° (WNW) 15:52:51 436.000
SPROUT 27 May 15:44:56 15:46:55 13° 302° (WNW) 15:48:44 437.525
O/OREOS (USA 219) 27 May 15:49:05 15:52:25 21° 103° (ESE) 15:55:51 437.305
SWISSCUBE 27 May 15:51:55 15:56:40 65° 288° (WNW) 16:01:25 437.505
TISAT 1 27 May 16:06:44 16:07:42 11° 303° (WNW) 16:08:27 437.305
Gurwin Techsat 1B 27 May 16:14:14 16:18:46 28° 267° (W) 16:23:16 435.225
Cosmos 2499 27 May 16:37:11 16:45:14 76° 282° (WNW) 16:52:43 435.465 / 435.565
STARS 27 May 16:39:56 16:44:15 48° 99° (E) 16:48:31 437.465
DANDE 27 May 16:44:17 16:49:50 19° 312° (NW) 16:55:20 436.750
JAS-2 27 May 16:59:04 17:05:32 57° 259° (W) 17:11:16 435.910
AO-7 27 May 17:02:54 17:11:08 64° 256° (WSW) 17:19:26 29.400- 29.500
HORYU 2 27 May 17:08:42 17:12:47 34° 264° (W) 17:16:53 437.375
MOZHAYETS 4 27 May 17:11:49 17:14:40 17° 88° (E) 17:17:40
KKS-1 27 May 17:13:47 17:18:10 52° 289° (WNW) 17:22:31 437.445
ITUPSAT 1 27 May 17:15:11 17:18:05 16° 302° (WNW) 17:20:49 437.325
CUSAT 1 27 May 17:16:01 17:18:17 11° 321° (NW) 17:20:06 437.405
BEESAT 27 May 17:22:51 17:25:14 14° 304° (WNW) 17:27:27 436.000
YUBILEINY 27 May 17:26:17 17:32:00 19° 52° (NE) 17:38:05 435.215
O/OREOS (USA 219) 27 May 17:27:09 17:31:33 49° 301° (WNW) 17:35:57 437.305
SWISSCUBE 27 May 17:32:28 17:33:42 11° 306° (NW) 17:34:44 437.505
RS-15 27 May 17:37:52 17:49:14 64° 41° (NE) 18:01:10 29.354- 29.394
GONETS M04 27 May 17:49:00 17:51:00 11° 321° (NW) 17:52:29
CUTE-I 27 May 17:50:21 17:54:41 27° 62° (ENE) 17:59:07 437.470
Cubesat XI-IV 27 May 18:10:32 18:15:22 38° 66° (ENE) 18:20:19 437.490
STARS 27 May 18:16:59 18:20:26 22° 297° (WNW) 18:23:46 437.465
BEESAT 2 27 May 18:25:54 18:29:00 21° 115° (ESE) 18:32:13 435.950
Cosmos 2499 27 May 18:34:43 18:39:50 18° 305° (NW) 18:44:28 435.465 / 435.565
MOZHAYETS 4 27 May 18:47:51 18:52:23 62° 288° (WNW) 18:56:53
CUBESAT XI-V 27 May 18:52:33 18:55:24 16° 87° (E) 18:58:26 437.345
HO-68 27 May 18:52:43 18:56:03 14° 43° (NE) 18:59:40 435.675
AO-7 27 May 19:01:45 19:05:54 14° 279° (W) 19:09:28 29.400- 29.500
BEESAT 3 27 May 19:12:45 19:16:49 70° 125° (SE) 19:20:57 437.485
YUBILEINY 27 May 19:22:02 19:30:46 74° 78° (ENE) 19:39:28 435.215
CUTE-I 27 May 19:29:20 19:34:31 52° 260° (W) 19:39:44 437.470
Cosmos 2491 27 May 19:30:49 19:38:37 39° 86° (E) 19:46:37 435.465 / 435.565
GOMX 1 27 May 19:42:39 19:46:22 20° 59° (ENE) 19:50:18 467.674
BRITE-PL 27 May 19:43:16 19:47:42 28° 63° (ENE) 19:52:25 437.365/2234.400
RS-15 27 May 19:50:37 20:01:39 51° 246° (WSW) 20:12:58 29.354- 29.394
Cubesat XI-IV 27 May 19:50:41 19:55:32 35° 264° (W) 20:00:24 437.490
PRISM 27 May 19:55:08 19:58:38 26° 94° (E) 20:02:12 437.425
AIST 2 27 May 19:57:38 20:01:46 50° 122° (ESE) 20:05:57 435.215
BEESAT 2 27 May 20:02:46 20:06:48 52° 313° (NW) 20:10:53 435.950
Cosmos 2504 27 May 20:06:03 20:10:13 16° 53° (NE) 20:14:39 435.465 / 435.565
CINEMA 3 27 May 20:12:57 20:15:09 13° 57° (ENE) 20:17:34 145.822/145.860
AUBIESAT-1 27 May 20:21:22 20:21:59 10° 94° (E) 20:22:47 437.475
CUBESAT XI-V 27 May 20:28:42 20:33:23 67° 287° (WNW) 20:38:03 437.345
STRAND 1 27 May 20:28:58 20:34:00 52° 100° (E) 20:39:02 437.568
HO-68 27 May 20:35:28 20:42:21 53° 65° (ENE) 20:49:19 435.675
DOVE 4 27 May 20:38:05 20:42:49 37° 67° (ENE) 20:47:43 437.250
CANX-2 27 May 20:50:32 20:54:33 42° 70° (ENE) 20:58:36 2200.000
BEESAT 3 27 May 20:51:59 20:55:14 22° 326° (NW) 20:58:27 437.485
CUTE 1.7 + AOD 2 27 May 20:53:58 20:57:59 42° 70° (ENE) 21:02:00 437.475
CUBEBUG 2 27 May 20:57:58 21:00:52 17° 60° (ENE) 21:03:55 437.445
ZACube-1 27 May 20:57:59 20:58:56 11° 57° (ENE) 21:00:07 437.345
Oscar 11 27 May 21:06:13 21:09:11 19° 63° (ENE) 21:12:16 145.826/435.025
AIST 1 27 May 21:06:34 21:10:27 36° 92° (E) 21:14:26
SEEDS 27 May 21:15:03 21:19:11 57° 73° (ENE) 21:23:20 437.485
GOMX 1 27 May 21:18:39 21:23:53 76° 258° (WSW) 21:29:24 467.674
YUBILEINY 27 May 21:19:48 21:26:53 28° 279° (W) 21:33:42 435.215
BRITE-PL 27 May 21:20:51 21:25:55 51° 262° (W) 21:31:20 437.365/2234.400
Cosmos 2491 27 May 21:26:37 21:35:16 56° 288° (WNW) 21:43:57 435.465 / 435.565
COMPASS 1 27 May 21:26:51 21:30:59 62° 74° (ENE) 21:35:08 437.405
PRISM 27 May 21:30:23 21:34:09 33° 292° (WNW) 21:37:53 437.425
AIST 2 27 May 21:36:50 21:40:34 28° 322° (NW) 21:44:18 435.215
AAUSAT CUBESAT 2 27 May 21:38:13 21:42:21 70° 75° (ENE) 21:46:31 437.432
UWE-3 27 May 21:41:59 21:46:06 32° 67° (ENE) 21:50:14 435.000/436.395/437.385
BEESAT 2 27 May 21:43:36 21:45:50 14° 335° (NNW) 21:48:00 435.950
CINEMA 3 27 May 21:46:34 21:51:35 75° 73° (ENE) 21:56:38 145.822/145.860
M-CUBED/EXP-1 PRIME 27 May 21:46:39 21:49:56 57° 293° (WNW) 21:53:11 437.505
FUNcube-1 27 May 21:49:48 21:53:43 29° 67° (ENE) 21:57:41 145.935
AUBIESAT-1 27 May 21:53:58 21:57:14 54° 293° (WNW) 22:00:28 437.475
AISAT 27 May 21:57:02 21:58:29 12° 56° (ENE) 22:00:08 437.250
Cosmos 2504 27 May 21:57:57 22:05:14 75° 78° (ENE) 22:12:26 435.465 / 435.565
DELFI C3 27 May 21:59:44 22:03:31 41° 70° (ENE) 22:07:20 145.870
RS-15 27 May 22:08:43 22:11:35 11° 267° (W) 22:13:15 29.354- 29.394
STRAND 1 27 May 22:08:43 22:12:57 26° 298° (WNW) 22:17:05 437.568
CUBESAT XI-V 27 May 22:08:55 22:10:01 11° 305° (NW) 22:10:55 437.345
DANDE 27 May 22:13:29 22:14:08 10° 36° (NE) 22:15:11 436.750
DOVE 4 27 May 22:15:47 22:20:33 36° 266° (W) 22:25:27 437.250
HUMSAT D 27 May 22:17:35 22:21:11 26° 66° (ENE) 22:24:49 437.325/437.525
HO-68 27 May 22:23:47 22:30:22 37° 265° (W) 22:36:54 435.675
CANX-2 27 May 22:27:23 22:30:42 21° 269° (W) 22:33:56 2200.000
ZACube-1 27 May 22:29:59 22:34:34 70° 73° (ENE) 22:39:07 437.345
UKube-1 27 May 22:30:32 22:34:29 36° 67° (ENE) 22:38:29 .
CUTE 1.7 + AOD 2 27 May 22:30:45 22:34:05 21° 268° (W) 22:37:21 437.475
CUBEBUG 2 27 May 22:32:15 22:37:02 77° 258° (WSW) 22:41:49 437.445
CUSAT 1 27 May 22:36:48 22:40:39 15° 45° (NE) 22:44:26 437.405
DX 1 27 May 22:40:24 22:44:35 48° 70° (ENE) 22:48:50 434.975-435.025
Oscar 11 27 May 22:40:46 22:45:02 55° 260° (W) 22:49:18 145.826/435.025
AIST 1 27 May 22:44:45 22:48:16 24° 291° (WNW) 22:51:45
SEEDS 27 May 22:52:43 22:55:24 16° 271° (W) 22:57:55 437.485
CUBEBUG 1 27 May 22:54:54 22:58:03 20° 62° (ENE) 23:01:18 437.445
VELOX 1 27 May 22:58:21 23:02:26 38° 68° (ENE) 23:06:36 145.980
50 SAT 27 May 23:00:27 23:04:11 39° 70° (ENE) 23:07:56 437.505
GOMX 1 27 May 23:01:03 23:03:06 12° 279° (W) 23:04:52 467.674
COMPASS 1 27 May 23:04:43 23:07:08 14° 272° (W) 23:09:23 437.405
ESTCUBE 1 27 May 23:05:19 23:09:06 28° 66° (ENE) 23:12:59 437.505/2401.250
AAUSAT CUBESAT 2 27 May 23:16:33 23:18:31 13° 273° (W) 23:20:17 437.432
UWE-3 27 May 23:18:17 23:22:35 34° 265° (W) 23:26:50 435.000/436.395/437.385
AIST 2 27 May 23:19:49 23:20:33 10° 345° (NNW) 23:21:13 435.215
ANTELSAT 27 May 23:24:27 23:27:44 21° 91° (E) 23:31:02 437.575/2403.000
FUNcube-1 27 May 23:25:43 23:29:58 36° 264° (W) 23:34:10 145.935
CINEMA 3 27 May 23:26:09 23:29:23 16° 274° (W) 23:32:26 145.822/145.860
ISS 27 May 23:28:48 23:29:46 11° 135° (SE) 23:30:51 145.825
AISAT 27 May 23:29:55 23:34:22 79° 74° (ENE) 23:38:53 437.250
Cosmos 2491 27 May 23:29:59 23:34:45 15° 314° (NW) 23:39:07 435.465 / 435.565
SPROUT 27 May 23:30:58 23:33:14 14° 60° (ENE) 23:35:40 437.525
DELFI C3 27 May 23:35:49 23:38:51 20° 269° (W) 23:41:47 145.870
BUGSAT 1 27 May 23:44:59 23:45:48 11° 85° (E) 23:46:51 437.445
TISAT 1 27 May 23:50:01 23:52:37 16° 61° (ENE) 23:55:22 437.305
GONETS M04 27 May 23:50:52 23:58:30 32° 62° (ENE) 00:06:14
Cosmos 2504 27 May 23:52:30 23:57:53 22° 279° (W) 00:03:02 435.465 / 435.565
HUMSAT D 27 May 23:52:48 23:56:49 36° 264° (W) 00:00:48 437.325/437.525
DANDE 27 May 23:53:07 00:00:27 36° 61° (ENE) 00:06:37 436.750
TIGRISAT 27 May 23:56:15 00:00:25 40° 97° (E) 00:04:30 435.000
QB50P1 28 May 00:06:55 00:10:31 26° 93° (E) 00:14:07 145.935-145.965
UKube-1 28 May 00:07:01 00:10:42 26° 266° (W) 00:14:22 .
ZACube-1 28 May 00:08:41 00:11:26 15° 273° (W) 00:14:01 437.345
POLYITAN 1 28 May 00:09:26 00:13:07 28° 94° (E) 00:16:49 437.675
CUBEBUG 2 28 May 00:14:13 00:14:37 10° 277° (W) 00:14:44 437.445
O/OREOS (USA 219) 28 May 00:16:10 00:18:21 13° 41° (NE) 00:20:40 437.305
UNISAT 6 28 May 00:17:01 00:21:26 68° 102° (ESE) 00:25:44 437.425
DX 1 28 May 00:17:50 00:21:07 20° 269° (W) 00:24:20 434.975-435.025
CUSAT 1 28 May 00:18:04 00:25:30 59° 71° (ENE) 00:31:20 437.405
CUBEBUG 1 28 May 00:29:49 00:34:05 52° 260° (W) 00:38:25 437.445
VELOX 1 28 May 00:35:21 00:39:06 26° 266° (W) 00:42:51 145.980
50 SAT 28 May 00:36:00 00:39:04 20° 268° (W) 00:42:03 437.505
NANOSAT C BR1 28 May 00:37:30 00:41:42 51° 100° (E) 00:45:52 145.865
ESTCUBE 1 28 May 00:41:44 00:45:53 36° 264° (W) 00:50:03 437.505/2401.250
QB50P2 28 May 00:46:16 00:50:33 66° 102° (ESE) 00:54:47 145.880/145.840
POPSAT HIP 1 28 May 00:58:16 01:02:36 85° 108° (ESE) 01:06:52 437.405
DUCHIFAT 1 28 May 00:59:19 01:03:38 85° 103° (ESE) 01:07:54 145.980
ANTELSAT 28 May 01:00:34 01:04:48 45° 290° (WNW) 01:08:55 437.575/2403.000
ISS 28 May 01:02:28 01:05:40 59° 152° (SSE) 01:08:53 145.825
BEESAT 2 28 May 01:03:48 01:05:39 13° 23° (NNE) 01:07:34 435.950
SPROUT 28 May 01:04:28 01:08:48 77° 257° (WSW) 01:13:11 437.525
AISAT 28 May 01:09:28 01:11:36 13° 274° (W) 01:13:32 437.250
ITUPSAT 1 28 May 01:10:05 01:13:34 21° 61° (ENE) 01:17:09 437.325
PCSat 28 May 01:10:22 01:14:59 30° 112° (ESE) 01:19:44 145.827
BEESAT 28 May 01:16:46 01:20:30 24° 63° (ENE) 01:24:21 436.000
BUGSAT 1 28 May 01:17:40 01:21:59 87° 287° (WNW) 01:26:15 437.445
TISAT 1 28 May 01:23:44 01:27:58 64° 259° (W) 01:32:14 437.305
SWISSCUBE 28 May 01:25:02 01:29:07 30° 65° (ENE) 01:33:16 437.505
TIGRISAT 28 May 01:33:24 01:36:59 24° 296° (WNW) 01:40:27 435.000
DANDE 28 May 01:36:21 01:44:12 57° 267° (W) 01:50:26 436.750
QB50P1 28 May 01:42:31 01:46:28 35° 292° (WNW) 01:50:21 145.935-145.965
POLYITAN 1 28 May 01:45:11 01:49:04 33° 292° (WNW) 01:52:53 437.675
Oscar 19 28 May 01:47:04 01:49:16 13° 85° (E) 01:51:43 437.125/150
GONETS M04 28 May 01:47:27 01:56:11 69° 266° (W) 02:04:48
BEESAT 3 28 May 01:50:45 01:54:05 23° 36° (NE) 01:57:26 437.485
O/OREOS (USA 219) 28 May 01:54:08 01:58:38 76° 63° (ENE) 02:03:07 437.305
UNISAT 6 28 May 01:54:59 01:57:44 16° 300° (WNW) 02:00:19 437.425
CUSAT 1 28 May 02:01:28 02:07:38 29° 276° (W) 02:12:36 437.405
NANOSAT C BR1 28 May 02:14:06 02:17:13 19° 297° (WNW) 02:20:13 145.865
QB50P2 28 May 02:23:18 02:26:00 16° 299° (WNW) 02:28:33 145.880/145.840
Cosmos 2499 28 May 02:23:52 02:30:39 46° 71° (ENE) 02:37:29 435.465 / 435.565
VERMONT LUNAR 28 May 02:26:24 02:26:39 10° 158° (SSE) 02:26:59 437.305
POPSAT HIP 1 28 May 02:35:49 02:37:53 13° 301° (WNW) 02:39:46 437.405
DUCHIFAT 1 28 May 02:36:50 02:38:52 13° 301° (WNW) 02:40:44 145.980
AIST 2 28 May 02:38:02 02:41:16 21° 32° (NNE) 02:44:31 435.215
ISS 28 May 02:38:59 02:42:10 48° 351° (N) 02:45:21 145.825
KKS-1 28 May 02:39:28 02:43:15 28° 65° (ENE) 02:47:07 437.445
BEESAT 2 28 May 02:40:48 02:44:47 44° 45° (NE) 02:48:43 435.950
ITUPSAT 1 28 May 02:46:25 02:51:07 58° 259° (W) 02:55:50 437.325
Gurwin Techsat 1B 28 May 02:47:25 02:50:01 14° 85° (E) 02:52:51 435.225
PCSat 28 May 02:52:56 02:58:13 52° 311° (NW) 03:03:32 145.827
BEESAT 28 May 02:53:30 02:58:06 49° 261° (W) 03:02:45 436.000
BUGSAT 1 28 May 02:55:05 02:56:50 12° 302° (WNW) 02:58:22 437.445
SWISSCUBE 28 May 03:02:27 03:06:53 38° 263° (W) 03:11:19 437.505
SO-50 28 May 03:04:39 03:07:38 17° 111° (ESE) 03:10:49 436.795
DANDE 28 May 03:22:56 03:25:32 12° 289° (WNW) 03:27:32 436.750
Oscar 19 28 May 03:24:17 03:29:30 88° 100° (E) 03:34:40 437.125/150
BEESAT 3 28 May 03:28:21 03:32:25 59° 236° (SW) 03:36:22 437.485
O/OREOS (USA 219) 28 May 03:35:16 03:37:30 13° 260° (W) 03:39:33 437.305
STARS 28 May 03:40:03 03:44:28 67° 72° (ENE) 03:48:56 437.465
ITAMSAT 1 28 May 03:40:59 03:45:53 40° 97° (E) 03:50:49 435.822/435.867
GONETS M04 28 May 03:46:43 03:51:29 15° 287° (WNW) 03:55:44
VERMONT LUNAR 28 May 04:00:43 04:03:09 20° 174° (S) 04:05:34 437.305
JAS-2 28 May 04:06:03 04:08:11 13° 85° (E) 04:10:38 435.910
KKS-1 28 May 04:15:36 04:19:47 37° 263° (W) 04:23:58 437.445
ISS 28 May 04:15:42 04:18:54 50° 10° (N) 04:22:07 145.825
AIST 2 28 May 04:16:07 04:20:23 80° 234° (SW) 04:24:33 435.215
MOZHAYETS 4 28 May 04:17:07 04:20:46 25° 64° (ENE) 04:24:30
Cosmos 2499 28 May 04:17:19 04:23:41 36° 273° (W) 04:30:00 435.465 / 435.565
BEESAT 2 28 May 04:19:16 04:22:41 25° 244° (WSW) 04:25:58 435.950
Gurwin Techsat 1B 28 May 04:25:30 04:30:51 90° 53° (NE) 04:36:12 435.225
PCSat 28 May 04:39:33 04:42:58 16° 335° (NNW) 04:46:17 145.827
SO-50 28 May 04:42:52 04:47:37 78° 309° (NW) 04:52:33 436.795
PHONESAT 2.4 28 May 04:43:54 04:46:25 19° 168° (SSE) 04:48:58 2401.200-2431.200
HORYU 2 28 May 04:55:58 05:00:01 34° 96° (E) 05:04:04 437.375
AO-7 28 May 05:00:23 05:07:53 37° 95° (E) 05:15:32 29.400- 29.500
Oscar 19 28 May 05:05:00 05:08:14 16° 303° (WNW) 05:11:17 437.125/150
STARS 28 May 05:18:46 05:21:26 15° 272° (W) 05:23:57 437.465
ITAMSAT 1 28 May 05:20:41 05:25:19 33° 296° (WNW) 05:29:55 435.822/435.867
Cosmos 2491 28 May 05:35:59 05:42:46 25° 56° (NE) 05:49:47 435.465 / 435.565
VERMONT LUNAR 28 May 05:37:27 05:39:45 18° 190° (S) 05:42:01 437.305
JAS-2 28 May 05:49:02 05:54:16 88° 288° (WNW) 05:59:35 435.910
ISS 28 May 05:52:11 05:55:22 51° 210° (SSW) 05:58:33 145.825
MOZHAYETS 4 28 May 05:53:26 05:57:48 43° 262° (W) 06:02:11
AIST 2 28 May 05:57:37 05:58:16 10° 251° (WSW) 05:58:42 435.215
CUBESAT XI-V 28 May 05:59:21 06:02:59 24° 64° (ENE) 06:06:44 437.345
Gurwin Techsat 1B 28 May 06:06:51 06:10:12 17° 304° (WNW) 06:13:22 435.225
STRAND 1 28 May 06:11:38 06:14:56 18° 58° (ENE) 06:18:24 437.568
PHONESAT 2.4 28 May 06:21:10 06:23:56 22° 185° (S) 06:26:42 2401.200-2431.200
SO-50 28 May 06:25:16 06:28:58 21° 332° (NNW) 06:32:41 436.795
Cubesat XI-IV 28 May 06:26:42 06:27:37 11° 82° (E) 06:28:53 437.490
PCSat 28 May 06:28:19 06:28:47 10° 1° (N) 06:29:14 145.827
HORYU 2 28 May 06:32:44 06:36:36 29° 294° (WNW) 06:40:23 437.375
YUBILEINY 28 May 06:35:17 06:40:09 17° 75° (ENE) 06:45:27 435.215
PRISM 28 May 06:48:42 06:52:18 31° 67° (ENE) 06:55:59 437.425
AO-7 28 May 06:52:58 07:01:12 62° 296° (WNW) 07:09:22 29.400- 29.500
M-CUBED/EXP-1 PRIME 28 May 07:03:39 07:07:18 33° 64° (ENE) 07:10:45 437.505
AUBIESAT-1 28 May 07:10:31 07:14:10 34° 64° (ENE) 07:17:36 437.475
AIST 1 28 May 07:10:34 07:13:05 15° 63° (ENE) 07:15:46
Cosmos 2491 28 May 07:32:11 07:41:07 90° 199° (SSW) 07:49:55 435.465 / 435.565
CUBESAT XI-V 28 May 07:35:47 07:40:13 45° 262° (W) 07:44:41 437.345
JAS-2 28 May 07:35:53 07:38:45 15° 305° (NW) 07:41:26 435.910
CUTE-I 28 May 07:42:29 07:47:41 48° 99° (E) 07:52:53 437.470
STRAND 1 28 May 07:48:30 07:53:36 78° 256° (WSW) 07:58:46 437.568
PHONESAT 2.4 28 May 07:59:43 08:01:22 13° 201° (SSW) 08:02:58 2401.200-2431.200
Cubesat XI-IV 28 May 08:03:27 08:08:50 71° 103° (ESE) 08:14:12 437.490
SO-50 28 May 08:09:29 08:11:20 12° 356° (N) 08:13:11 436.795
RS-15 28 May 08:10:32 08:17:31 21° 100° (E) 08:25:11 29.354- 29.394
PCSat 28 May 08:11:05 08:14:34 17° 27° (NNE) 08:18:08 145.827
PRISM 28 May 08:24:17 08:27:48 27° 265° (W) 08:31:17 437.425
YUBILEINY 28 May 08:26:53 08:35:36 75° 95° (E) 08:44:19 435.215
M-CUBED/EXP-1 PRIME 28 May 08:38:45 08:42:12 25° 259° (WSW) 08:45:24 437.505
AUBIESAT-1 28 May 08:45:40 08:49:01 24° 259° (W) 08:52:07 437.475
AIST 1 28 May 08:46:55 08:51:17 65° 263° (W) 08:55:39
AO-7 28 May 08:47:02 08:52:31 19° 319° (NW) 08:57:45 29.400- 29.500
Cosmos 2504 28 May 08:53:46 08:55:33 11° 74° (ENE) 08:57:52 435.465 / 435.565
GOMX 1 28 May 09:17:39 09:22:17 29° 91° (E) 09:26:47 467.674
BRITE-PL 28 May 09:21:58 09:27:28 48° 96° (E) 09:32:44 437.365/2234.400
CUTE-I 28 May 09:22:58 09:27:35 29° 297° (WNW) 09:32:07 437.470
Cosmos 2491 28 May 09:30:28 09:36:53 22° 282° (WNW) 09:42:57 435.465 / 435.565
STRAND 1 28 May 09:32:15 09:33:49 11° 277° (W) 09:35:04 437.568
CINEMA 3 28 May 09:39:52 09:42:19 14° 85° (E) 09:44:55 145.822/145.860
Cubesat XI-IV 28 May 09:44:29 09:48:28 21° 301° (WNW) 09:52:19 437.490
UNISAT 6 28 May 09:45:11 09:47:31 14° 59° (ENE) 09:50:00 437.425
HO-68 28 May 09:46:37 09:53:12 38° 96° (E) 09:59:47 435.675
SO-50 28 May 09:50:47 09:53:52 16° 21° (NNE) 09:57:02 436.795
PCSat 28 May 09:53:52 09:59:13 56° 50° (NE) 10:04:33 145.827
CANX-2 28 May 10:07:48 10:11:56 51° 99° (E) 10:16:03 2200.000
QB50P2 28 May 10:10:22 10:11:27 11° 57° (ENE) 10:12:45 145.880/145.840
DOVE 4 28 May 10:11:07 10:16:12 55° 99° (E) 10:20:59 437.250
CUTE 1.7 + AOD 2 28 May 10:11:08 10:15:15 50° 99° (E) 10:19:21 437.475
RS-15 28 May 10:17:17 10:28:07 77° 123° (ESE) 10:39:22 29.354- 29.394
ZACube-1 28 May 10:18:40 10:18:42 10° 83° (E) 10:19:00 437.345
CUBEBUG 2 28 May 10:21:06 10:24:05 18° 88° (E) 10:27:07 437.445
POPSAT HIP 1 28 May 10:21:10 10:23:14 14° 59° (ENE) 10:25:28 437.405
DUCHIFAT 1 28 May 10:21:54 10:23:54 13° 59° (ENE) 10:26:05 145.980
Oscar 11 28 May 10:25:03 10:28:16 21° 91° (E) 10:31:34 145.826/435.025
YUBILEINY 28 May 10:25:54 10:33:25 30° 299° (WNW) 10:40:44 435.215
ANTELSAT 28 May 10:26:29 10:30:34 31° 66° (ENE) 10:34:38 437.575/2403.000
SEEDS 28 May 10:31:21 10:35:32 68° 101° (ESE) 10:39:41 437.485
BUGSAT 1 28 May 10:38:10 10:40:11 14° 59° (ENE) 10:42:22 437.445
Cosmos 2504 28 May 10:39:35 10:47:33 58° 93° (E) 10:55:03 435.465 / 435.565
COMPASS 1 28 May 10:42:10 10:46:21 72° 103° (ESE) 10:50:28 437.405
AAUSAT CUBESAT 2 28 May 10:53:00 10:57:10 81° 102° (ESE) 11:01:19 437.432
GOMX 1 28 May 10:55:26 11:00:36 46° 292° (WNW) 11:05:30 467.674
TIGRISAT 28 May 10:57:59 11:02:34 58° 72° (ENE) 11:07:08 435.000
BRITE-PL 28 May 11:00:47 11:05:46 31° 296° (WNW) 11:10:31 437.365/2234.400
QB50P1 28 May 11:03:00 11:06:48 32° 67° (ENE) 11:10:39 145.935-145.965
UWE-3 28 May 11:04:30 11:08:37 37° 96° (E) 11:12:37 435.000/436.395/437.385
POLYITAN 1 28 May 11:05:45 11:09:39 34° 68° (ENE) 11:13:36 437.675
DELFI C3 28 May 11:10:12 11:14:02 42° 98° (E) 11:17:52 145.870
FUNcube-1 28 May 11:10:30 11:14:26 33° 95° (E) 11:18:19 145.935
AISAT 28 May 11:19:06 11:20:40 12° 86° (E) 11:22:29 437.250
